Погода Агинское

Погода Агинское : погода сейчас, прогноз погоды и архив. Всё, что Вы хотите узнать о погоде Агинское!

Хотите узнать прогноз погоды Агинское? Тогда Вам сюда: Погода Агинское

Поиск расширенной информации на нашем сайте:

Другие новости

Новости СМИ2

Главная страница сайта

Новости сайта

03.07.2017

Напоминаем, что на нашем специализированном сайте Метеоцентр.Азия вы можете получить высокодетализированные автоматические прогнозы погоды по пунктам России, СНГ и мира в авиационном формате (включающие направление и скорость ветра, видимость, явления погоды, количество и форму облачности, нижнюю и верхнюю границу облачности).


Погода Агинское - сегодня

Время (UTC), дата Ветер
(°,м/с) 
Видим.   Явления Облачность Т
(°С)
Тd
(°С)
f(%) Тe
(°С)
Pmin
(гПа)
dP
(гПа)
Po
(мм)
O2
(г/м3)
Тmin Tmax R s Состояние
почвы
03 23.07.17 360 (С) 20000 м    4/4 1000 м 
[Cu med, cong]
+21.3 +9.7 47 +23  1007.8  0.2  699  260           
06 23.07.17 340 (С) 20000 м  {гроза, ливн. осадки}  10/5 600 м кучево-дожд., средняя, верхняя 
[Cb cap|Ac trans|Ci fib]
+22.2 +8.6 42 +23  1007.6  699  259           
09 23.07.17 010 (С) 2{14}  20000 м  слаб. ливневой дождь, в посл. час гроза  9/9 600 м кучево-дожд. 
[Cb cap]
+14.3 +11.4 83 +20  1011.2  1.4  700  266           
12 23.07.17 280 (З) 2{14}  20000 м  {гроза, ливн. осадки}  8/8 600 м кучево-дожд. 
[Cb cap]
+15.3 +11.6 79 +21  1011.4  0.5  701  265    +22.2     
15 23.07.17 240 (ЮЗ) 20000 м    ясно 
+10.7 +10.1 96 +14  1014.4  1.4  702  270           
18 23.07.17 240 (ЮЗ) 20000 м    3/3 1000 м 
[Sc]
+9.3 +8.6 95 +10  1015.2  0.5  702  272           
21 23.07.17 250 (З) 4000 м  в посл. час туман  ясно 
+6 +5.6 97 +6  1016.2  -0.1  702  276           
00 24.07.17 230 (ЮЗ) 20000 м  {туман}  ясно 
+13 +10.4 84 +17  1014.6  0.5  702  268  +5.9        влажная 
03 24.07.17 360 (С) 20000 м    4/4 1000 м 
[Cu med, cong]
+20.4 +5.7 38 +20  1011.3  -1.3  701  262           
06 24.07.17 220 (ЮЗ) 20000 м    3/3 1000 м 
[Cu med, cong]
+23.4 +3.8 28 +23  1009.2  -1.3  700  259           
09 24.07.17 310 (СЗ) 20000 м    8/1 1000 м верхняя 
[Cu med, cong|Ci fib]
+24.1 +2.7 25 +24  1007.7  -1.2  700  258           
12 24.07.17 тихо ()   20000 м    8/1 1000 м верхняя 
[Sc diur, vesp|Ci fib]
+21.1 +4.7 34 +21  1008.3  -0.2  699  261    +24.6       
15 24.07.17 310 (СЗ) 20000 м    ясно 
+11.5 +8.1 80 +13  1012  1.1  700  269           
18 24.07.17 270 (З) 20000 м    ясно 
+9 +7 87 +10  1012.7  0.1  700  272           
21 24.07.17 280 (З) 20000 м    4/3 1000 м верхняя 
[Sc|Ci fib]
+6.4 +5.7 95 +7  1013.5  700  275           
00 25.07.17 090 (В) 20000 м    10/3 1000 м средняя, верхняя 
[Sc|Ac trans|Ci fib]
+14 +8.5 69 +16  1010.9  -0.3  700  267  +6        сухая 
03 25.07.17 170 (Ю) 20000 м    10/3 1000 м средняя, верхняя 
[Sc|Ac lent|Cs]
+22.1 +10.2 47 +25  1007.4  -1.2  699  259           
06 25.07.17 240 (ЮЗ) 20000 м    10/10 1000 м 
[Cu Sc]
+21.1 +10.2 50 +24  1007.1  -0.5  699  259           
09 25.07.17 230 (ЮЗ) 20000 м    10/10 1000 м 
[Sc]
+19.3 +9.6 53 +22  1007.1  -0.4  698  261           
12 25.07.17 250 (З) 20000 м    8/8 1000 м 
[Sc]
+17.2 +9.8 62 +20  1007.7  698  263    +22.5       
15 25.07.17 300 (СЗ) 20000 м    8/5 1000 м средняя 
[Sc|Ac lent]
+13 +10.4 84 +17  1008.2  -0.5  698  266           
18 25.07.17 280 (З) 20000 м    6/6 1000 м 
[Sc]
+11.6 +9.3 86 +15  1007.9  -0.8  697  268           
21 25.07.17 240 (ЮЗ) 20000 м  слаб. ливневой дождь  10/5 600 м кучево-дожд., средняя 
[Cb cap|Ac As]
+11.5 +10.7 95 +17  1008  0.2  698  268           
00 26.07.17 200 (Ю) 20000 м  {ливн. осадки}  9/8 1000 м средняя 
[Sc|Ac lent]
+14.8 +11.9 83 +21  1007.1  698  264  +11.2      влажная 
03 26.07.17 290 (З) 20000 м    9/1 1000 м средняя, верхняя 
[Cu med, cong|Ac trans|Cc]
+21.3 +9.3 46 +23  1005  -0.4  697  259           
Время (UTC), дата Ветер
(°,м/с) 
Видим.   Явления Облачность Т
(°С)
Тd
(°С)
f(%) Тe
(°С)
Pmin
(гПа)
dP
(гПа)
Po
(мм)
O2
(г/м3)
Тmin Tmax R s Состояние
почвы

Для получения пояснительной информации подведите курсор к названию столбца.

ПОГОДА Агинское - архив

Всё, что Вы хотите узнать о погоде Агинское - удобно и подробно!

Выберите нужную дату (начиная с 1 января 2015* года) и нажмите кнопку "Найти".
Будут отображены архивные сводки погоды по пункту Агинское, начиная с указанной даты.


Отображать данные в формате CSV (для использования в таблицах Excel)


Внимание! Наш архив погоды предназначен исключительно для личного некоммерческого использования в познавательных целях. Если Вам необходимы официальные справки о состоянии погоды (для производственных, юридических, коммерческих и т.п. целей), обращайтесь в органы Росгидромета.

*Примечание: данная дата относится к архиву по метеостанциям СССР (Россия, СНГ, Балтия).
Архив по метеостанциям Зарубежной Европы и Азии (кроме Китая) хранится 10 дней, по другим регионам земного шара (Китай, Африка, Америка, Австралия, Океания) - 1 день.

Агинское - район местоположения метеостанции


Название, широта, долгота, высота метеостанции:
Агинское 51.1°ш. 114.5°д. 681 м над ур. моря [Российская Федерация]

Дополнительная информация

В oтличие oт бoльшинства пoгoдных сайтoв мы публикуем пoдрoбную метеoинфoрмацию в детальнoм прoфессиoнальнoм фoрмате.

Характеристики температуры и влажнoсти вoздуха измеряются на высoте 2 м в тени вдали oт зданий и деревьев.
Скoрoсть ветра измеряется на высoте 10 м (на урoвне рoста челoвека скoрoсть ветра ниже в 1.5-2 раза). Если метеoстанция нахoдится в гoрoде или в лесу, тo скoрoсть ветра занижена на 2-4 м/с пo сравнению с oткрытым местoм. Скoрoсть ветра над акватoриями крупных рек и oзёр, а также на вершинах хoлмoв на 2-5 м/с выше, чем в oбычных услoвиях.
Атмoсфернoе давление в разных тoчках местнoсти мoжет значительнo oтличаться oт давления на метеoстанции, в зависимoсти oт услoвий рельефа (при пoдъёме на 10 м давление пoнижается примернo на 1 мм рт.ст.).